Wind_Speed
3 3 7 11 10 12 14 15 21 30 26 19 22 24 29 26 22 25 24 21 20 21 19 26 25 29 30 29 30 34 30 25 32 30 27 26 26 27 31 37 42 46 42 51
4 8 11 6 7 11 17 17 26 27 17 10 26 32 28 28 26 24 23 21 19 19 18 16 20 24 24 26 30 31 31 31 32 31 30 26 26 25 31 34 41 48 48 48
5 11 9 11 12 16 21 12 19 20 29 19 17 21 16 18 14 14 16 18 17 16 15 17 17 14 23 24 25 30 34 31 32 34 29 24 24 21 22 26 29 35 48 52
6 5 8 11 14 14 17 6 13 21 15 14 8 15 18 10 9 15 14 14 13 17 20 20 19 15 18 25 28 29 31 29 30 32 29 27 22 14 14 22 25 28 30 38
10 8 13 15 10 10 12 12 15 20 18 14 5 7 5 9 9 17 17 17 19 13 18 18 17 17 23 29 29 29 30 28 30 31 34 30 22 21 19 20 21 24 30 30
15 5 3 7 7 6 14 9 16 2 2 1 7 5 1 4 10 14 16 17 19 18 16 14 11 9 9 11 19 22 21 26 30 31 36 35 31 25 22 23 23 24 30 34
6 4 4 4 7 6 8 6 4 5 4 6 9 11 4 8 11 12 17 18 17 17 15 14 12 8 6 8 2 5 10 23 29 33 35 33 31 30 31 31 27 23 24 28
1 10 2 4 3 7 2 5 3 7 5 17 12 4 4 8 7 11 13 14 16 17 16 11 11 9 7 8 7 6 4 5 19 28 34 37 34 30 29 30 28 28 30 33
1 7 6 14 7 6 6 0 4 5 1 3 3 3 4 15 17 15 15 15 16 16 17 16 9 9 9 10 11 10 10 10 6 17 22 23 29 26 24 28 31 32 32 32
4 9 6 3 4 2 6 2 3 2 5 6 5 4 4 16 18 18 17 16 16 16 17 16 9 9 10 11 11 18 17 15 11 15 19 19 19 23 23 24 26 27 30 32
4 5 8 6 2 5 4 2 4 3 2 3 5 5 3 8 13 15 15 16 15 14 14 16 13 9 11 14 14 19 21 20 18 16 16 17 15 13 15 22 28 29 27 30
6 4 4 11 11 5 5 3 2 3 5 4 3 6 1 6 10 12 14 15 14 13 14 14 13 9 11 16 13 24 22 22 21 17 18 18 13 9 7 11 22 27 27 29
4 3 5 10 6 5 2 3 5 5 3 4 2 5 2 8 11 11 12 13 13 15 14 13 12 11 11 16 20 24 23 21 23 20 20 17 17 12 8 1 12 21 27 31
8 5 11 10 13 2 14 15 13 5 2 3 6 10 7 10 11 12 13 12 11 11 12 12 12 12 13 21 22 23 21 21 24 25 23 20 17 15 11 6 1 12 20 24
6 4 3 12 18 15 17 17 15 6 5 4 4 6 7 5 7 10 9 11 12 12 12 12 12 11 13 17 21 21 22 27 22 25 24 21 17 13 11 9 6 2 8 16
3 4 2 20 12 4 5 9 9 7 3 6 6 7 2 2 4 9 9 11 11 12 12 11 11 12 13 16 18 19 18 22 24 27 22 23 19 15 12 10 9 7 5 3
5 2 1 6 3 5 4 5 4 3 3 3 3 4 2 1 4 7 10 9 9 10 11 12 12 11 14 19 18 17 18 23 24 24 26 27 23 18 14 11 10 9 6 4
8 5 3 5 6 3 6 2 4 6 5 8 5 4 2 3 5 4 5 8 11 12 13 12 11 14 20 20 19 18 20 22 26 26 26 26 21 20 18 16 14 10 7 5
16 7 3 2 2 6 4 3 5 4 6 7 6 1 3 1 4 1 1 1 3 6 8 10 14 16 19 22 22 21 25 25 24 23 24 22 21 20 20 19 16 14 10 8
9 10 5 2 2 5 6 3 4 4 4 4 5 3 2 4 2 3 3 2 4 6 9 12 17 18 22 22 19 18 18 19 19 20 19 18 18 19 20 18 16 14 11 9
4 3 10 3 4 7 6 3 4 4 5 4 5 4 4 3 3 3 1 2 2 3 8 11 12 15 16 18 16 16 17 18 16 15 16 18 18 18 17 16 16 14 12 10
6 6 3 2 1 7 5 4 4 5 1 5 4 5 4 3 1 2 1 1 2 4 9 13 13 13 15 13 14 13 15 16 16 16 17 18 17 17 16 16 14 14 13 11
2 5 4 7 5 4 5 4 3 4 5 5 5 5 6 6 4 5 3 2 1 1 3 7 10 12 15 16 15 16 17 17 16 14 15 16 15 15 15 15 16 15 13 13
3 3 2 2 2 5 6 4 3 5 4 4 6 6 7 6 6 5 3 2 1 4 6 10 13 13 16 19 17 15 15 15 13 13 14 13 14 15 14 12 12 14 13 13
3 6 5 4 5 3 3 6 4 4 2 5 5 5 8 7 7 6 4 3 0 3 6 9 12 12 14 17 16 15 15 14 13 11 11 12 12 13 13 11 11 10 12 9
4 6 4 4 4 3 6 3 5 8 9 8 8 7 6 7 8 6 5 5 3 3 4 8 10 13 17 19 17 14 13 13 12 11 11 11 11 11 11 12 13 6 6 8
Wind_Direction
236 238 242 259 213 250 267 274 276 281 288 285 285 283 275 276 270 264 262 258 252 250 245 253 254 258 252 262 266 268 269 258 223 212 207 203 189 186 183 182 183 183 179 181
346 241 269 247 252 262 271 276 280 287 284 299 298 284 284 282 273 265 262 259 251 252 253 246 247 248 256 251 257 263 268 251 233 215 210 205 197 189 189 187 189 190 189 182
182 257 293 281 277 303 283 267 278 276 305 301 285 282 281 289 276 270 270 271 261 248 251 254 254 240 247 256 251 251 256 253 237 213 204 200 184 180 186 184 185 185 189 185
235 273 269 276 285 294 283 232 280 295 303 296 0 290 309 301 25 13 349 341 321 316 265 250 248 248 235 246 254 248 246 251 241 214 197 191 183 173 185 179 187 184 182 180
257 285 292 296 273 291 264 295 281 280 275 285 281 236 291 28 355 345 334 327 324 318 312 251 245 246 238 244 251 251 240 238 238 218 206 191 183 180 189 191 181 184 188 189
257 253 240 237 290 258 287 314 306 7 102 7 255 209 282 14 334 325 326 326 328 331 322 335 311 301 249 239 250 254 239 235 224 214 202 189 184 175 170 182 178 181 188 197
304 247 260 209 350 342 40 21 326 340 350 239 308 301 300 1 348 330 328 325 330 335 331 332 333 340 0 349 312 258 243 226 216 202 195 192 186 173 176 176 177 174 180 189
297 314 235 193 172 239 289 153 270 305 313 300 312 244 169 43 3 342 331 326 331 337 335 334 336 345 355 12 10 39 15 172 206 202 192 194 190 182 182 180 176 180 189 200
307 267 273 284 286 129 279 230 228 267 294 355 275 274 182 351 353 350 342 337 337 337 336 332 359 3 14 30 30 46 48 69 145 184 192 183 179 178 181 183 186 188 194 204
272 294 277 326 359 315 173 323 285 357 311 301 285 287 281 333 339 341 341 342 339 338 340 341 349 13 19 27 41 62 61 57 72 114 125 138 149 172 182 195 187 191 196 204
145 213 285 12 214 209 341 270 239 252 230 281 306 281 264 324 334 334 338 341 338 341 344 347 348 341 23 33 43 57 53 51 55 80 98 102 106 137 170 203 208 206 201 203
207 224 274 242 275 196 173 241 261 248 292 238 269 280 345 347 340 341 339 343 344 350 349 348 341 340 28 40 32 54 42 44 47 57 76 76 83 90 133 188 211 218 218 215
206 258 310 324 355 3 163 226 255 304 270 228 261 272 12 9 354 345 342 346 346 354 351 351 347 354 29 31 31 50 38 41 51 52 63 68 63 64 57 171 212 211 219 215
268 226 234 254 267 229 294 290 293 252 226 275 245 296 344 354 343 342 344 344 348 353 355 353 353 8 23 30 31 38 36 42 56 58 53 51 50 50 47 41 244 214 212 215
195 234 194 262 265 273 263 269 278 219 219 210 271 296 318 346 336 333 333 343 352 358 0 357 355 7 28 30 32 31 37 41 49 58 53 47 46 46 43 47 59 114 223 224
191 259 131 290 277 190 259 254 241 246 200 253 273 292 171 72 351 343 352 351 353 353 355 2 4 13 24 30 29 31 35 41 51 51 44 49 49 45 38 35 44 64 81 161
174 173 336 263 332 332 338 231 200 224 211 185 249 242 4 42 28 348 346 355 351 350 354 357 5 18 21 25 28 33 33 46 46 46 43 44 42 40 39 38 41 45 44 68
228 163 220 281 353 359 242 207 171 207 230 207 253 258 250 215 168 74 5 348 350 352 357 0 3 7 13 18 22 32 39 43 43 40 37 38 34 34 39 42 39 34 26 31
208 202 247 242 195 287 328 223 186 146 286 189 211 209 306 307 108 287 321 12 324 334 346 352 4 11 13 15 16 27 32 35 36 29 30 28 29 29 30 32 31 30 26 22
186 197 189 86 148 236 240 250 160 107 313 212 164 172 187 162 73 266 303 339 351 359 1 2 16 20 24 21 26 34 30 29 25 23 23 25 29 29 25 21 22 23 25 22
144 174 219 236 267 287 243 167 134 76 241 197 173 174 181 175 192 191 248 346 290 319 6 22 29 29 21 25 33 34 29 22 14 23 26 27 28 28 24 20 20 19 23 24
171 155 189 92 162 277 171 94 165 214 236 168 195 174 158 164 162 154 141 272 9 357 4 15 18 21 23 25 33 38 29 16 17 21 25 26 26 25 23 20 22 21 22 23
291 188 177 180 212 251 242 203 238 175 159 200 173 175 160 153 177 169 176 175 137 63 3 14 13 9 24 27 25 23 10 9 15 21 24 21 19 21 23 21 17 19 22 24
251 155 211 87 253 227 242 258 241 201 201 171 169 160 158 161 160 170 177 197 20 12 5 0 3 4 7 12 14 13 5 6 8 13 15 15 15 13 16 17 17 14 11 18
210 146 211 259 287 304 285 234 215 203 217 154 143 160 165 155 172 172 187 193 287 341 344 347 348 345 353 1 8 6 1 3 6 4 3 3 3 5 5 9 5 360 356 345
189 204 180 233 210 204 262 284 180 179 191 180 162 159 166 166 173 169 188 192 197 251 302 327 335 340 349 352 354 357 353 352 353 358 355 351 352 353 355 356 352 8 353 348
Height
779 786 784 768 770 764 764 761 755 727 720 726 717 702 683 683 685 676 671 670 668 665 658 660 659 657 655 657 657 657 657 657 659 664 668 670 672 678 681 683 687 694 704 709
789 790 761 760 759 758 754 756 741 720 713 716 706 689 677 670 668 662 661 659 659 655 655 650 650 649 649 647 649 650 651 651 653 658 663 665 670 673 678 680 685 689 698 704
795 765 757 756 751 750 743 747 737 733 706 709 703 686 671 655 655 653 655 654 652 650 647 644 643 642 640 641 641 642 645 645 647 650 658 662 666 670 676 679 685 688 692 696
787 762 754 752 754 748 749 731 727 726 731 719 705 698 660 656 665 668 664 662 660 655 641 635 634 633 634 633 634 635 638 641 642 644 652 656 659 665 670 676 683 687 693 697
776 760 755 756 747 741 743 729 731 723 724 724 705 707 674 674 679 680 673 667 662 654 643 629 627 625 625 625 626 628 630 634 636 639 645 649 656 661 668 675 680 686 689 698
764 752 758 749 738 738 733 738 728 743 755 765 701 694 678 690 690 685 678 672 661 652 645 637 628 622 622 620 620 622 624 627 631 634 638 642 648 658 665 672 679 684 688 694
762 756 740 739 758 753 761 779 775 773 781 734 678 684 682 694 691 689 682 674 664 657 647 639 635 630 625 622 617 616 619 621 624 627 632 638 644 651 658 665 673 681 687 690
805 767 751 735 746 760 763 766 739 736 733 702 680 700 681 689 689 689 685 676 668 660 654 642 638 633 630 624 620 615 615 617 622 624 626 631 639 646 653 660 666 674 682 687
814 780 736 734 732 745 760 758 734 723 777 756 715 679 683 680 686 686 684 677 671 663 657 647 639 637 633 627 624 619 617 617 621 622 625 632 636 644 651 656 663 670 677 682
785 770 735 734 740 740 742 729 730 760 749 755 720 702 706 697 695 691 687 681 675 668 661 652 643 639 637 631 626 622 623 623 624 622 626 632 637 642 650 657 662 668 673 680
803 785 760 751 764 765 748 742 726 724 728 724 725 719 717 706 704 699 694 687 680 672 666 658 651 645 639 633 632 627 627 627 629 628 631 631 637 642 648 655 661 666 671 675
778 785 794 763 732 740 740 727 722 727 734 721 716 710 710 708 706 702 698 691 684 677 670 664 656 649 640 637 637 627 629 631 632 634 630 633 639 644 649 655 660 663 668 673
780 775 772 760 751 748 753 722 724 723 722 729 721 713 709 705 705 705 702 696 690 682 676 670 662 655 647 641 636 633 638 639 637 637 638 641 644 647 651 657 660 662 666 670
749 754 753 749 739 760 734 722 721 724 734 727 716 708 702 709 709 707 704 700 695 690 684 677 669 660 651 648 646 643 648 647 645 644 646 649 651 652 656 658 660 662 665 669
754 771 787 756 745 742 738 732 723 723 726 725 722 719 709 713 715 712 708 703 698 694 689 684 677 669 662 660 657 656 655 651 653 653 657 657 656 656 659 661 662 662 664 666
753 765 782 740 742 775 758 725 719 712 717 719 718 719 717 717 717 712 711 707 702 697 693 689 684 676 671 668 667 665 667 663 660 657 664 663 662 662 663 664 664 664 665 666
752 758 756 759 765 762 738 730 714 719 718 719 717 711 718 718 720 717 712 711 709 704 699 693 687 683 679 676 675 674 673 667 667 667 666 665 667 671 670 668 666 666 668 668
733 755 742 746 761 765 716 725 722 716 714 714 713 712 717 718 720 722 720 715 710 706 700 696 692 686 683 681 680 677 675 674 669 671 673 672 677 676 673 671 670 669 670 670
726 737 734 751 800 738 707 713 717 721 706 709 712 716 720 719 719 723 726 723 721 716 709 704 699 695 690 686 683 679 676 675 677 679 681 683 681 679 677 675 674 673 672 671
724 729 728 777 757 771 719 709 714 717 723 715 710 719 722 711 728 730 726 724 721 718 714 709 704 701 697 695 692 690 689 689 689 688 688 688 684 681 679 679 677 676 675 674
734 738 729 771 729 735 715 703 702 714 718 720 718 716 714 713 721 724 724 723 722 720 718 715 712 709 707 703 701 698 698 696 697 694 692 688 685 684 683 682 681 679 678 678
727 739 758 766 748 732 705 704 706 699 713 713 718 715 714 720 722 722 723 722 720 719 717 716 714 713 711 709 706 703 702 701 697 694 692 691 690 688 687 686 685 683 681 680
723 712 718 718 718 707 705 699 698 700 699 707 704 708 708 713 716 717 719 719 719 719 719 718 716 714 712 710 706 704 702 700 697 696 695 694 693 692 691 689 688 687 685 683
703 708 704 704 698 703 700 697 699 698 694 694 696 701 704 708 712 715 716 717 717 717 717 716 715 713 711 708 706 705 703 701 699 698 697 696 695 694 692 691 691 690 689 687
693 698 695 695 687 691 689 690 688 694 695 694 696 699 701 706 711 713 715 716 716 717 716 716 715 713 711 709 707 706 704 702 701 700 699 698 696 695 694 693 692 691 691 691
688 685 695 688 681 683 682 682 686 689 691 692 695 699 702 704 707 710 713 715 717 718 718 717 717 714 711 709 708 707 706 704 703 702 700 699 698 697 695 694 691 692 691 690